Location: Unspecified
(0.0000°N, 0.0000°E)
Time: 11:37:21
(UTC+00:00)

Explorer 11/Cluster Stage 4 - Pass Details

Date: 02 October 2020
Orbit: 467 x 1258 km, 28.8° (Epoch: 28 October)

Event Time Altitude Azimuth Distance (km) Brightness Sun altitude
Rises 16:51:57 0° 209° (SSW) 2,780 9.9 14.3°
Reaches altitude 10° 16:56:10 10° 170° (S) 1,729 8.3 13.2°
Maximum altitude 16:57:05 11° 156° (SSE) 1,662 8.1 13.0°
Drops below altitude 10° 16:57:59 10° 142° (SE) 1,680 8.0 12.8°
Sets 17:01:46 0° 101° (E) 2,492 8.6 11.8°
